CROCUBE

Last updated on Sat Aug 15 2026 00:03:14 GMT+0000 (Coordinated Universal Time)

1 62394U 24247T 26226.54495132 .00026236 00000+0 42458-3 0 9998 2 62394 44.9702 289.6379 0009246 352.1064 7.9682 15.52356178 92408
UTC large
Height (km)
Speed (km/s)
/
Latitude / Longitude
Inclination (degrees)
Orbital Period (minutes)
Azimuth
Elevation
Range (km)
Doppler Factor

Next 0 passes for location: London (51.5072 / 0.1276)

No passes found over London.
CROCUBE